Location: Detroit
(42.3310°N, 83.0460°W)
Time: 00:16:25
(UTC-04:00)

A-11 Canister half - Pass Details

Date: 07 February 2023
Orbit: 1526 x 1682 km, 47.3° (Epoch: 20 March)

Event Time Altitude Azimuth Distance (km) Brightness Sun altitude
Rises 08:26:04 0° 279° (W) 4,676 10.9 7.1°
Reaches altitude 10° 08:29:08 10° 283° (WNW) 3,697 10.4 7.6°
Maximum altitude 08:38:25 66° 5° (N) 1,664 9.3 9.1°
Drops below altitude 10° 08:47:54 10° 87° (E) 3,775 12.1 10.6°
Sets 08:51:04 0° 91° (E) 4,780 12.7 11.1°
